User: anonymous   Login
Location: Buchberg
(46.9333°N, 15.8500°E)
Time: 22:54:59
(UTC+00:00)
Language:

Cosmos 1703 Rocket - Orbit

View from above orbital plane
View from above orbital plane
View from above satellite
View from above satellite

Ground track
Ground track

The orbit data is extracted from the following two-line orbital elements,

1 16263U 85108B   20272.52074733 +.00000093 +00000-0 +84601-5 0  9990
2 16263 082.5023 069.1025 0020075 002.4338 060.6063 14.83108098861061
Epoch (UTC): 28 September 2020 12:29:52
Eccentricity: 0.0020075
inclination: 82.5023°
perigee height: 605 km
apogee height: 633 km
right ascension of ascending node: 69.1025°
argument of perigee: 2.4338°
revolutions per day: 14.83108098
mean anomaly at epoch: 60.6063°
orbit number at epoch: 86106

The dashed part of the orbit path shows where the satellite is in the earth's shadow,  

DLR